Theta_e
346 356 357 356 364 354 339 340 340 349 351 350 350 352 353 352 353 358 349 349 348 347 347 344 340 339 339 338 337 335 332 332 336 339 339 338 340 340 340 340 337 328 323 323 323 325 334 326 333
353 356 353 357 363 342 342 340 343 348 349 349 350 351 352 353 351 349 351 349 348 347 345 342 341 338 337 337 337 333 334 339 340 340 339 340 341 339 342 336 328 325 337 341 334 336 333 327 339
356 358 359 360 343 337 342 341 345 349 349 349 350 351 351 352 351 351 349 349 348 346 344 342 338 336 335 336 335 337 337 338 339 340 340 341 341 340 338 330 325 330 340 334 332 335 330 326 343
357 358 359 352 337 339 339 343 348 350 350 351 352 352 351 351 350 350 349 348 346 346 342 339 333 331 334 336 338 337 334 330 330 331 338 340 338 337 331 327 326 329 329 333 332 332 328 326 337
347 348 351 341 339 340 342 344 347 350 350 350 349 351 350 350 349 349 348 346 346 344 342 334 332 335 337 339 334 333 337 337 337 336 332 328 329 335 336 332 330 331 333 338 337 336 332 330 335
342 350 354 342 341 339 339 345 348 350 351 350 351 350 349 350 348 349 348 346 345 341 336 334 335 338 338 334 337 331 330 331 331 336 334 335 333 327 330 336 327 330 333 336 337 337 332 330 331
345 351 346 342 341 339 339 341 343 350 351 350 350 350 348 348 349 349 348 345 343 340 334 336 337 339 334 335 334 329 330 330 332 336 337 337 333 334 332 328 329 332 334 338 335 336 332 334 338
344 350 343 339 339 340 339 343 344 347 350 349 347 350 350 349 348 347 346 345 343 340 337 337 338 338 334 335 333 330 330 330 335 339 343 343 339 334 333 333 330 329 330 330 330 333 332 335 339
345 345 337 342 341 339 342 345 346 349 350 350 349 349 349 348 347 346 346 345 344 343 340 336 337 338 337 336 331 331 330 332 337 346 346 343 346 343 343 342 337 337 333 333 328 330 334 341 339
341 331 335 340 341 342 342 345 346 351 350 350 350 351 350 348 346 345 344 345 344 343 339 336 333 335 339 334 331 331 331 334 342 347 350 347 341 343 347 347 344 347 345 345 345 327 330 341 343
333 329 330 338 342 342 343 344 346 350 351 350 350 350 350 348 347 346 345 344 344 342 335 331 330 335 339 335 332 335 341 334 337 346 347 347 346 348 349 347 346 346 345 343 347 346 345 345 342
330 333 334 340 341 341 341 343 344 345 351 349 349 349 349 349 348 347 345 345 343 342 340 334 334 335 336 332 333 335 336 341 343 338 341 341 342 342 347 347 346 348 349 346 344 346 346 346 344
331 333 334 340 340 340 341 342 344 345 346 349 350 350 349 349 348 348 345 342 341 340 339 334 335 335 333 333 334 334 335 336 341 340 338 336 337 345 347 350 348 349 347 347 348 345 346 345 344
335 334 332 336 340 341 342 342 343 345 345 350 350 349 348 347 347 347 345 345 344 340 337 335 334 333 334 333 333 337 342 342 349 349 350 349 349 337 336 343 344 348 346 348 346 341 345 340 339
334 333 332 335 341 340 341 342 343 344 345 345 347 349 348 347 346 346 345 345 346 345 339 340 336 337 336 334 334 341 340 350 349 348 352 350 351 350 340 337 335 338 341 344 342 343 340 341 345
331 331 330 335 340 339 340 345 342 343 344 344 345 349 349 347 346 346 347 345 346 346 341 340 345 342 338 338 343 343 345 348 349 350 349 348 349 349 347 344 345 350 350 351 346 345 344 343 343
331 329 331 333 340 342 342 343 342 343 343 343 343 344 347 348 348 347 347 346 346 347 347 346 345 339 341 340 342 345 350 350 348 348 349 350 348 348 349 345 348 349 351 348 349 346 346 346 348
333 332 330 331 339 340 343 343 342 343 344 343 343 342 344 345 345 346 347 347 348 348 348 346 347 348 349 345 350 349 347 349 345 346 347 348 347 348 348 349 347 350 351 347 348 348 347 346 348
332 334 332 331 331 335 343 344 342 343 344 343 343 342 343 343 344 345 345 345 346 349 349 347 350 350 350 350 347 347 350 349 348 348 347 348 348 349 347 346 348 345 348 348 348 346 334 334 345
332 334 332 331 331 336 340 343 342 342 344 344 343 343 343 343 344 344 344 344 346 345 347 346 345 349 349 349 341 345 350 352 351 349 347 346 341 329 337 337 345 350 349 347 347 345 344 341 345
331 333 333 331 331 331 338 339 342 342 343 344 344 343 344 343 344 344 344 344 345 345 345 346 343 344 346 345 344 343 351 352 350 349 340 343 339 337 340 340 341 338 334 331 333 338 338 337 336
331 333 334 332 329 327 329 338 337 336 342 343 345 345 345 344 344 344 344 344 345 345 346 346 345 341 340 342 341 347 348 348 346 348 342 343 344 344 344 345 346 345 337 326 327 328 330 330 333
331 334 334 334 331 332 332 330 339 335 337 343 344 345 345 345 346 345 345 344 344 344 345 345 347 345 339 338 338 346 349 347 349 354 347 344 349 349 350 352 350 345 329 326 325 328 325 323 321
333 334 334 329 327 327 329 329 339 339 338 340 344 346 346 346 347 347 347 347 347 346 347 348 349 349 345 338 342 343 348 347 353 350 345 346 343 347 350 347 351 341 330 328 324 325 323 324 325
331 330 331 329 328 329 328 332 335 338 338 338 341 345 346 346 347 347 347 348 348 348 349 349 350 351 349 347 344 344 344 344 349 351 342 341 344 342 342 344 341 334 329 324 320 323 324 323 322
330 328 329 336 335 332 333 334 339 337 339 339 340 342 345 346 347 347 347 347 347 349 350 350 350 351 352 348 344 344 345 344 346 345 338 346 344 341 340 340 339 335 330 322 322 325 325 324 323
332 329 328 328 329 333 336 340 339 337 336 337 337 339 343 345 346 346 346 346 346 347 347 350 350 351 351 351 348 346 346 346 344 342 339 349 348 344 345 342 340 336 323 325 326 327 327 326 321
330 330 330 328 334 338 337 340 338 336 335 338 338 340 340 344 345 347 346 346 345 347 346 350 350 350 351 353 353 349 346 345 344 341 345 348 343 343 345 342 337 325 327 328 328 328 327 324 322
328 329 330 329 331 334 341 337 341 340 339 338 339 341 343 345 344 346 347 350 350 349 350 353 355 355 353 352 350 345 347 345 350 335 345 340 343 343 342 338 330 328 330 331 333 334 331 330 326
328 328 330 332 333 334 335 336 331 330 330 335 338 338 339 343 347 346 345 347 347 344 346 348 344 344 349 346 335 336 341 340 341 334 334 343 343 341 339 336 331 333 334 337 337 337 333 330 332
Wind_Speed
3 5 3 1 2 1 10 9 7 18 20 36 30 23 21 19 8 9 16 22 23 25 25 28 26 25 25 25 26 25 22 20 20 20 20 21 19 19 19 19 17 16 15 15 15 17 18 18 22
1 2 2 5 2 10 10 11 15 19 30 35 30 23 20 15 20 22 19 22 24 26 28 31 25 23 23 24 25 24 20 19 19 19 20 20 17 17 17 16 17 16 17 16 14 16 18 20 22
4 4 6 3 1 10 11 12 17 30 25 20 12 19 10 7 11 11 26 26 27 30 32 31 28 23 26 26 25 22 20 20 20 19 19 18 17 17 15 14 16 17 16 15 15 16 17 18 18
8 3 6 2 14 12 16 17 23 24 29 26 22 11 13 12 12 22 25 26 27 30 36 31 26 27 26 24 22 22 21 21 21 19 18 17 16 15 15 14 15 16 15 16 16 16 16 17 18
11 6 2 3 9 15 16 26 30 19 20 23 26 14 14 24 24 23 26 26 27 36 33 33 27 24 22 24 25 24 23 21 20 20 19 17 15 15 14 14 14 15 15 14 13 13 14 14 16
14 7 3 11 15 14 14 29 30 29 32 27 23 16 11 20 23 22 28 30 32 36 37 33 29 27 27 26 24 23 20 19 20 18 18 17 17 16 14 14 14 14 12 10 10 11 12 14 14
2 2 7 15 15 17 16 26 18 27 27 18 22 11 15 21 24 26 26 29 31 34 38 33 30 26 32 25 23 21 20 18 18 18 18 18 17 16 14 13 12 10 9 8 8 9 11 14 14
12 2 4 15 14 15 23 27 24 24 18 32 21 7 13 26 23 22 27 29 30 31 36 35 34 31 31 25 20 18 16 16 15 15 15 13 16 15 15 13 12 10 9 8 7 8 11 13 12
20 3 4 8 13 15 33 28 36 33 33 26 22 33 31 25 24 28 29 27 28 28 32 32 31 28 28 24 22 19 9 12 13 11 11 11 10 12 14 13 11 12 11 10 7 9 10 13 10
15 4 7 9 15 20 28 34 29 27 32 30 32 33 25 25 26 27 27 26 25 28 30 32 27 24 23 26 19 16 14 14 12 8 11 5 7 9 10 8 8 9 11 11 10 8 7 5 3
17 5 8 15 27 30 30 31 33 32 19 32 34 35 27 23 23 23 24 24 23 25 30 29 26 26 26 25 19 15 7 11 11 6 7 5 3 2 1 7 7 5 6 5 7 7 4 3 3
9 6 18 20 26 23 18 27 23 26 31 35 33 35 32 29 25 21 24 24 24 24 27 31 30 26 25 21 17 8 6 4 4 7 3 7 5 4 2 1 1 1 2 3 4 3 3 5 6
9 2 25 17 25 33 36 26 20 28 27 37 34 31 32 25 26 23 19 22 20 22 27 33 27 26 22 18 16 7 5 3 3 1 1 0 2 4 7 5 5 5 7 6 5 8 6 7 12
9 8 20 15 24 37 32 21 28 24 25 33 33 32 29 28 27 27 26 23 20 21 26 28 25 24 21 19 16 8 5 1 2 3 3 3 9 7 7 7 8 7 7 7 7 9 10 9 7
6 3 10 13 31 15 37 17 18 28 26 21 26 32 27 28 27 32 31 29 19 21 25 22 25 21 21 21 16 11 7 4 4 8 9 9 10 11 9 8 7 6 7 7 9 7 8 9 8
6 3 4 10 15 8 14 12 21 28 27 24 23 32 30 30 26 28 32 25 21 21 20 22 19 22 18 20 15 11 6 3 8 9 12 12 12 16 15 9 5 6 11 13 12 11 9 10 9
5 6 8 8 18 11 10 18 25 31 28 26 25 25 28 28 26 29 32 25 21 23 23 20 18 18 19 18 13 10 12 14 15 11 7 8 12 17 21 13 4 8 13 15 17 13 14 16 13
7 5 12 8 14 17 23 20 22 32 29 27 30 28 27 27 27 26 26 26 25 26 22 18 19 16 14 14 14 16 12 8 4 11 12 8 7 8 17 15 8 10 14 15 13 10 11 19 21
8 4 10 9 9 10 19 20 23 31 30 27 29 32 31 30 29 28 26 28 28 25 25 23 23 23 20 20 20 19 15 11 9 12 10 5 8 14 9 12 12 11 12 13 16 13 21 6 13
7 8 11 8 8 10 14 17 20 26 30 34 32 32 34 31 32 30 29 30 31 32 30 28 31 29 27 24 20 16 13 11 12 10 12 11 17 22 10 8 15 9 12 12 12 12 13 14 14
8 2 4 13 6 6 13 8 16 19 26 33 36 37 36 37 36 34 33 34 34 33 31 28 30 30 30 26 22 18 17 18 15 11 9 12 12 5 7 2 1 5 8 11 9 10 12 15 15
6 7 8 14 7 4 7 5 7 11 20 24 34 37 38 39 39 37 35 35 35 34 29 27 26 29 28 26 24 20 18 17 15 8 6 6 6 4 3 6 2 2 9 12 10 12 14 15 18
8 5 6 2 1 1 5 5 14 9 9 19 30 37 39 44 43 42 38 37 35 32 32 29 25 25 27 26 25 24 20 14 11 11 5 5 6 9 6 7 4 5 11 13 14 15 18 19 20
9 2 5 6 4 5 11 8 8 13 16 16 30 38 41 44 46 41 39 34 36 33 32 31 28 25 26 27 26 25 22 14 13 10 11 8 5 9 9 7 5 7 11 12 14 15 18 19 22
6 6 1 3 2 7 11 3 8 18 15 14 22 38 38 45 46 45 42 39 34 37 36 34 32 29 27 27 27 26 24 19 20 18 12 10 8 9 11 11 12 11 12 14 15 18 20 22 25
9 7 6 7 4 8 10 7 5 8 24 15 19 31 37 44 46 49 44 40 36 35 38 38 36 33 27 27 28 27 26 26 24 21 19 15 9 7 11 13 14 14 14 16 18 21 24 26 29
7 5 7 3 6 3 1 7 5 9 8 11 12 16 28 42 43 50 47 42 37 36 37 41 37 32 31 27 25 26 25 25 24 21 17 13 11 16 20 19 18 16 19 20 22 26 29 30 31
9 8 1 3 4 5 3 5 5 7 7 7 7 3 1 35 41 46 50 46 36 35 35 37 36 31 30 26 21 20 20 23 21 15 21 14 17 21 22 21 18 20 25 28 29 31 31 32 31
5 2 3 4 5 4 3 5 2 8 7 8 8 4 15 22 12 45 42 23 19 15 12 30 15 20 31 22 7 17 24 22 23 23 22 23 28 25 23 21 23 29 30 32 31 30 31 31 32
10 10 8 5 9 2 6 6 8 9 9 12 12 10 14 16 19 18 23 25 30 27 30 20 16 30 25 2 18 39 30 30 15 22 35 24 22 21 22 25 30 33 30 30 29 29 34 32 34
Wind_Direction
129 56 8 308 292 104 73 63 91 90 81 78 66 76 75 55 53 91 133 136 133 131 128 123 122 119 118 119 120 122 116 109 104 104 107 108 104 103 107 109 108 105 108 110 107 105 100 103 109
142 68 324 291 298 87 79 73 50 94 103 89 80 76 60 69 83 118 123 136 137 131 129 127 120 119 119 121 122 121 113 103 99 101 105 107 104 104 108 108 104 109 106 101 104 108 106 110 113
35 127 260 183 339 81 88 84 75 63 65 88 82 49 47 95 101 125 135 139 138 134 134 129 118 119 120 118 119 116 111 105 102 102 105 105 104 106 105 104 111 116 112 113 109 106 107 116 121
334 254 252 242 95 83 90 80 80 79 63 101 104 65 57 92 104 130 140 142 141 139 134 120 118 127 122 118 116 113 106 101 98 101 102 103 105 104 103 106 111 113 113 107 105 103 103 113 124
337 310 288 125 95 109 104 102 97 95 87 82 86 94 85 90 108 126 141 143 139 137 131 122 131 130 122 115 112 107 102 100 98 98 97 101 105 106 104 108 115 118 119 111 105 102 101 108 122
19 354 339 92 91 88 95 109 111 105 109 107 93 96 86 116 120 130 140 140 140 138 135 136 137 130 125 121 114 108 101 95 92 93 96 97 98 103 104 106 114 118 114 105 103 99 100 104 123
50 97 341 112 102 94 96 94 95 128 131 108 124 91 112 118 125 131 140 142 140 143 145 140 135 134 129 129 122 112 98 90 90 90 91 93 92 92 93 102 110 115 111 106 95 94 97 108 111
159 180 249 94 105 95 82 73 81 111 108 130 112 126 123 128 135 137 140 142 147 148 149 146 146 141 139 136 127 115 104 94 97 100 93 87 78 85 87 84 92 105 111 109 106 96 103 108 109
193 224 59 110 100 108 95 88 80 87 95 83 100 119 126 137 136 136 134 139 149 156 162 156 150 144 144 146 132 118 107 104 112 103 88 85 77 73 83 86 86 97 98 100 115 122 127 108 96
182 96 83 120 105 115 113 108 111 105 99 101 110 122 134 133 137 141 144 146 151 158 164 166 159 149 148 146 147 140 131 120 122 106 102 98 79 78 80 85 80 97 104 100 92 117 143 108 35
62 118 87 98 125 118 116 118 123 119 119 135 138 141 144 135 134 135 148 155 159 159 163 166 164 158 157 161 157 136 129 121 126 147 128 122 96 102 43 88 92 99 102 119 117 120 160 191 205
76 50 112 74 112 111 122 121 115 118 141 144 141 146 151 148 145 148 146 150 156 164 170 174 168 164 166 169 160 141 136 113 127 160 155 176 180 149 195 144 270 142 104 105 162 183 215 242 245
104 106 103 112 113 104 104 105 107 115 130 143 143 146 154 147 150 160 144 141 142 152 163 171 171 169 170 178 175 178 185 151 106 60 178 143 314 223 209 224 227 264 275 273 272 240 259 244 252
344 29 117 100 121 114 111 114 113 127 135 143 146 148 153 150 151 156 159 155 154 152 160 165 173 180 188 187 189 197 194 165 19 13 357 335 327 312 261 263 241 241 229 253 272 262 260 265 258
250 258 124 136 112 112 112 110 120 140 141 149 151 149 152 154 155 157 158 174 161 159 160 161 170 178 197 198 203 206 206 254 318 324 280 310 311 324 297 266 253 266 293 310 298 282 277 274 263
234 262 142 135 127 184 105 138 141 150 153 159 154 156 157 163 173 166 170 178 169 162 161 167 177 179 165 186 199 208 207 272 268 284 284 296 309 315 331 306 260 309 303 314 319 308 302 305 293
277 216 151 153 149 151 126 147 155 160 163 163 157 155 162 167 173 172 179 179 179 175 170 176 179 186 194 198 209 219 228 227 224 229 282 263 297 309 322 313 292 305 299 304 311 318 323 316 307
248 241 158 163 163 161 138 152 163 168 167 165 161 163 170 172 176 174 172 174 184 188 178 178 198 209 206 205 210 220 200 223 227 230 235 276 260 298 307 305 279 294 289 295 307 303 355 315 304
240 289 158 166 171 129 149 160 168 172 166 166 166 170 175 178 182 185 189 192 193 189 189 191 194 205 213 214 216 213 209 204 217 234 242 287 269 248 264 278 269 269 284 310 323 334 355 230 300
297 298 141 154 178 123 157 170 170 173 172 169 168 174 178 183 185 187 193 195 199 202 211 216 203 202 213 221 222 215 205 221 240 245 243 235 245 321 252 235 274 288 293 313 305 315 313 308 315
281 279 155 153 161 129 162 172 170 182 173 171 172 179 184 185 188 189 193 201 205 210 214 220 216 212 217 224 226 225 223 228 239 247 257 255 237 131 79 137 184 66 24 14 353 337 331 325 323
278 266 277 146 124 177 164 201 218 191 173 175 174 178 183 187 192 193 195 202 208 215 223 228 227 222 224 224 226 219 224 233 233 219 136 161 187 183 160 132 125 61 10 9 359 351 346 334 326
252 329 4 101 123 196 255 100 204 171 175 184 178 183 186 189 192 195 197 203 209 217 225 232 236 234 227 223 223 224 227 227 220 246 189 160 239 209 187 186 216 344 350 345 339 337 337 333 327
253 238 9 19 28 345 260 176 187 184 194 186 180 187 187 187 190 197 199 202 208 214 223 230 234 236 230 229 227 224 227 223 225 197 176 182 166 178 192 207 239 290 320 329 332 323 323 324 322
251 87 343 350 333 226 250 226 202 190 187 188 186 189 191 183 184 193 196 198 208 210 215 226 231 234 232 232 228 221 224 216 219 211 198 186 188 201 198 209 237 279 309 325 314 319 325 327 323
230 160 162 196 173 245 254 185 250 170 169 156 203 190 188 180 184 191 196 200 201 210 214 219 228 232 231 231 234 235 230 227 225 219 214 204 219 258 266 252 258 285 298 309 313 317 317 316 315
257 189 214 312 296 11 257 20 27 123 149 146 129 172 184 180 185 190 196 200 203 207 211 221 227 231 236 236 233 236 235 243 242 232 232 226 244 248 252 248 262 277 300 311 314 313 313 313 315
152 203 268 326 246 283 232 142 200 136 121 109 93 59 17 190 190 190 198 201 205 209 207 216 229 232 238 237 239 245 252 257 254 252 258 266 261 262 255 258 278 302 310 309 314 316 316 316 315
275 248 245 164 153 183 88 288 135 109 117 115 85 124 65 50 226 192 197 194 165 167 193 217 221 245 244 231 246 269 245 246 232 236 253 266 274 271 274 289 302 306 311 313 315 310 312 311 312
185 221 190 134 284 251 157 230 155 129 115 99 94 67 47 41 53 130 148 161 190 199 203 206 231 282 275 69 265 272 247 250 275 259 243 249 272 276 287 299 304 308 310 300 306 303 306 306 308